Regional Weather Roundup
Issued by NWS

Home | Current Version | Previous Version | Text Only | Print | Product List | Glossary Off
Versions: 1 2 3 4 5 6 7 8 9 10 11 12 13 14 15 16 17 18 19 20 21 22 23 24 25 26 27 28 29 30 31 32 33 34 35 36 37 38 39 40 41 42 43 44 45 46 47 48 49 50

000
ASUS43 KFSD 280810
RWRSD

WEATHER ROUNDUP FOR SOUTH DAKOTA
NATIONAL WEATHER SERVICE SIOUX FALLS SD
300 AM CDT MON JUL 28 2014

NOTE: "FAIR" INDICATES FEW OR NO CLOUDS BELOW 12,000 FEET WITH NO
SIGNIFICANT WEATHER AND/OR OBSTRUCTIONS TO VISIBILITY.


SDZ001>005-009-010-012>017-280900-
NORTHWEST AND NORTH CENTRAL SOUTH DAKOTA

CITY           SKY/WX    TMP DP  RH WIND       PRES   REMARKS
BUFFALO          N/A     54  51  90 E6        30.29S
FAITH            N/A     53  49  86 SE6       30.34R
MOBRIDGE       CLEAR     50  49  96 NW3       30.29R
$$

SDZ012>016-024>037-041>051-057-063-072>074-280900-
SOUTHWEST AND SOUTH CENTRAL SOUTH DAKOTA

CITY           SKY/WX    TMP DP  RH WIND       PRES   REMARKS
RAPID CTY ARPT CLEAR     52  49  89 CALM      30.36S
PIERRE         CLEAR     55  53  93 W5        30.30R
CUSTER         CLEAR     52  48  86 NE5       30.44S
ELLSWORTH AFB  CLEAR     59  53  78 W3        30.36S
PHILIP         CLEAR     55  50  83 CALM      30.33R
PINE RIDGE     CLEAR     56  52  86 NE8       30.34S
WINNER         FAIR      56  52  86 CALM      30.31S
$$

SDZ004>011-016>023-039-040-280900-
NORTHEAST SOUTH DAKOTA

CITY           SKY/WX    TMP DP  RH WIND       PRES   REMARKS
ABERDEEN       CLOUDY    54  52  93 NW6       30.27R
WATERTOWN      CLOUDY    60  56  86 NW8       30.24S
SISSETON         N/A     59  57  93 NW7       30.23R
$$

SDZ017-020-022-023-036>040-048>070-280900-
SOUTHEAST SOUTH DAKOTA

CITY           SKY/WX    TMP DP  RH WIND       PRES   REMARKS
SIOUX FALLS    CLEAR     57  54  89 NW6       30.23S
HURON          CLEAR     52  51  97 NW7       30.26S
CHAMBERLAIN    CLEAR     50  48  92 CALM      30.30R
MITCHELL       CLEAR     56  54  93 W8        30.27R
YANKTON        MOCLDY    57  54  88 NW7       30.25S
$$

ABBREVIATIONS USED IN REMARKS
   TC - TEMPERATURE IN CELSIUS
  WCI - WIND CHILL INDEX
   HX - HEAT INDEX
  VSB - VISIBILITY




USA.gov is the U.S. government's official web portal to all federal, state and local government web resources and services.